Location: Casalecchio di Reno
(44.4760°N, 11.2757°E)
Time: 09:48:46
(UTC+02:00)

AO-73 - Pass Details

Date: 19 June 2024
Orbit: 555 x 624 km, 97.7° (Epoch: 17 July)

Event Time Altitude Azimuth Distance (km) Brightness Sun altitude
Rises 04:37:43 0° 10° (N) 2,757 ? -8.0°
Reaches altitude 10° 04:39:52 10° 8° (N) 1,853 ? -7.7°
Maximum altitude 04:43:51 71° 285° (WNW) 592 ? -7.2°
Drops below altitude 10° 04:47:48 10° 202° (SSW) 1,836 ? -6.7°
Enters shadow 04:48:42 - 201° (SSW) 2,217 ? -6.6°
